Weather History for Gary, IN

Change the Weather History Date:

Saturday, November 12, 2011

  Actual Average Record
Temperature  
Mean Temperature 50 °F -  
Max Temperature 62 °F 46 °F 73 °F (1964)
Min Temperature 39 °F 34 °F 19 °F (1950)
Degree Days  
Heating Degree Days 14    
Moisture  
Dew Point 35 °F    
Average Humidity 51    
Maximum Humidity 81    
Minimum Humidity 32    
Precipitation  
Precipitation 0.00 in - - ()
Sea Level Pressure  
Sea Level Pressure 29.77 in    
Wind  
Wind Speed 12 mph (SSW)    
Max Wind Speed 23 mph    
Max Gust Speed 40 mph    
Visibility 18 miles    
Events      
Averages and records for this station are not official NWS values.
T = Trace of Precipitation, MM = Missing Value Source: NWS Daily Summary

Daily Weather History Graph

Daily Weather History Graph

Search for Another Location

Airport:

Trip Planner

Search our weather history database for the weather conditions in past years. The results will help you decide how hot, cold, wet, or windy it might be!

Date:

Astronomy

Nov. 12, 2011 Rise Set
Actual Time 6:34 AM CST 4:32 PM CST
Civil Twilight 6:05 AM CST 5:01 PM CST
Nautical Twilight 5:31 AM CST 5:35 PM CST
Astronomical Twilight 4:58 AM CST 6:08 PM CST
Moon 5:46 PM CST (11/12) 8:18 AM CST (11/12)
Length of Visible Light 10h 56m
Length of Day
9h 57m
Full, 97% of the Moon is Illuminated
Nov 12
Full
Nov 18
Last Quarter
Nov 25
New
Dec 2
First Quarter
Dec 10
Full

Hourly Weather History & Observations

Time (CST) Temp. Windchill Dew Point Humidity Pressure Visibility Wind Dir Wind Speed Gust Speed Precip Events Conditions
4:45 AM 39.2 °F 35.0 °F 33.8 °F 81% 29.79 in 10.0 mi SSW 5.8 mph - N/A   Clear
5:45 AM 39.2 °F 32.0 °F 33.8 °F 81% 29.80 in 10.0 mi SW 11.5 mph - N/A   Clear
6:45 AM 39.2 °F 33.0 °F 32.0 °F 75% 29.81 in 15.0 mi SSW 9.2 mph - N/A   Clear
7:45 AM 42.8 °F 37.5 °F 33.8 °F 70% 29.82 in 20.0 mi SSW 9.2 mph - N/A   Partly Cloudy
8:45 AM 46.4 °F 41.1 °F 33.8 °F 62% 29.83 in 20.0 mi SSW 11.5 mph 17.3 mph N/A   Scattered Clouds
9:45 AM 51.8 °F - 33.8 °F 50% 29.84 in 20.0 mi SSW 8.1 mph 19.6 mph N/A   Mostly Cloudy
10:47 AM 60.8 °F - 42.8 °F 52% 29.93 in 10.0 mi NNE 6.9 mph - N/A   Mostly Cloudy
10:55 AM 55.4 °F - 35.6 °F 47% 29.84 in 20.0 mi SSW 17.3 mph 26.5 mph N/A   Mostly Cloudy
11:45 AM 59.0 °F - 35.6 °F 42% 29.82 in 20.0 mi SSW 15.0 mph 25.3 mph N/A   Mostly Cloudy
12:45 PM 60.8 °F - 33.8 °F 36% 29.79 in 20.0 mi South 13.8 mph 23.0 mph N/A   Overcast
1:45 PM 62.6 °F - 32.0 °F 32% 29.76 in 20.0 mi South 17.3 mph 25.3 mph N/A   Overcast
2:45 PM 62.6 °F - 33.8 °F 34% 29.74 in 20.0 mi South 11.5 mph 28.8 mph N/A   Overcast
3:45 PM 60.8 °F - 33.8 °F 36% 29.73 in 20.0 mi South 13.8 mph 25.3 mph N/A   Overcast
4:45 PM 59.0 °F - 33.8 °F 39% 29.72 in 20.0 mi South 13.8 mph 26.5 mph N/A   Overcast
5:45 PM 57.2 °F - 33.8 °F 41% 29.72 in 20.0 mi South 13.8 mph 28.8 mph N/A   Overcast
6:45 PM 57.2 °F - 35.6 °F 44% 29.70 in 20.0 mi South 17.3 mph 31.1 mph N/A   Overcast
7:45 PM 57.2 °F - 37.4 °F 48% 29.68 in 20.0 mi South 20.7 mph 34.5 mph N/A   Overcast
8:45 PM 57.2 °F - 39.2 °F 51% 29.68 in 20.0 mi South 23.0 mph 38.0 mph N/A   Overcast
9:45 PM 57.2 °F - 41.0 °F 55% 29.67 in 20.0 mi South 23.0 mph 40.3 mph N/A   Overcast